Weather History for Plattsburgh, NY

Change the Weather History Date:

Friday, January 3, 2014

  Actual Average Record
Temperature  
Mean Temperature -10 °F 19 °F  
Max Temperature -1 °F 29 °F 46 °F (1950)
Min Temperature -19 °F 9 °F -28 °F (1981)
Degree Days  
Heating Degree Days 75 46  
Month to date heating degree days 209 138  
Since 1 July heating degree days 3261 3024  
Cooling Degree Days 0 0  
Month to date cooling degree days 0  
Year to date cooling degree days 0  
Moisture  
Dew Point -17 °F    
Average Humidity 66    
Maximum Humidity 81    
Minimum Humidity 51    
Precipitation  
Precipitation T in - 1.80 in (1960)
Month to date precipitation T  
Year to date precipitation T  
Sea Level Pressure  
Sea Level Pressure 30.24 in    
Wind  
Wind Speed 10 mph (North)    
Max Wind Speed 21 mph    
Max Gust Speed 28 mph    
Visibility 7 miles    
Events Snow    
T = Trace of Precipitation, MM = Missing Value Source: NWS Daily Summary

Daily Weather History Graph

Daily Weather History Graph

Search for Another Location

Airport:

Trip Planner

Search our weather history database for the weather conditions in past years. The results will help you decide how hot, cold, wet, or windy it might be!

Date:

Astronomy

Jan. 03, 2014 Rise Set
Actual Time 7:30 AM EST 4:26 PM EST
Civil Twilight 6:57 AM EST 4:59 PM EST
Nautical Twilight 6:20 AM EST 5:36 PM EST
Astronomical Twilight 5:45 AM EST 6:11 PM EST
Moon 8:47 AM EST (1/3) 7:40 PM EST (1/3)
Length of Visible Light 10h 01m
Length of Day
8h 55m
Waxing Crescent, 8% of the Moon is Illuminated
Jan 3
Waxing Crescent
Jan 7
First Quarter
Jan 15
Full
Jan 24
Last Quarter
Jan 30
New

Hourly Weather History & Observations

Time (EST) Temp. Windchill Dew Point Humidity Pressure Visibility Wind Dir Wind Speed Gust Speed Precip Events Conditions
12:07 AM -9.4 °F -31.4 °F -16.6 °F 71% 30.10 in 2.5 mi NNW 15.0 mph - 0.00 in Snow Light Snow
12:19 AM -9.4 °F -31.4 °F -14.8 °F 77% 30.10 in 3.0 mi NNW 15.0 mph - 0.00 in Snow Light Snow
12:31 AM -9.4 °F -32.8 °F -14.8 °F 77% 30.09 in 2.5 mi NNW 17.3 mph - 0.00 in Snow Light Snow
12:53 AM -9.0 °F -33.0 °F -15.0 °F 75% 30.12 in 2.0 mi North 18.4 mph - 0.00 in Snow Light Snow
1:06 AM -9.4 °F -32.8 °F -14.8 °F 77% 30.09 in 2.0 mi North 17.3 mph - 0.00 in Snow Light Snow
1:29 AM -9.4 °F -31.4 °F -14.8 °F 77% 30.09 in 3.0 mi North 15.0 mph - 0.00 in Snow Light Snow
1:53 AM -9.0 °F -32.4 °F -15.0 °F 75% 30.12 in 7.0 mi North 17.3 mph - 0.00 in   Overcast
2:53 AM -8.0 °F -30.3 °F -15.0 °F 71% 30.11 in 3.0 mi NNW 16.1 mph - 0.00 in Snow Light Snow
3:53 AM -9.0 °F -33.0 °F -15.0 °F 75% 30.11 in 3.0 mi NNW 18.4 mph - 0.00 in Snow Light Snow
4:03 AM -9.4 °F -32.1 °F -16.6 °F 71% 30.08 in 2.5 mi NNW 16.1 mph - 0.00 in Snow Light Snow
4:12 AM -9.4 °F -30.6 °F -16.6 °F 71% 30.08 in 4.0 mi NNW 13.8 mph - 0.00 in Snow Light Snow
4:53 AM -9.0 °F -31.7 °F -16.1 °F 71% 30.12 in 4.0 mi NNW 16.1 mph - 0.00 in Snow Light Snow
5:53 AM -9.0 °F -31.7 °F -17.0 °F 68% 30.14 in 5.0 mi NNW 16.1 mph 24.2 mph 0.00 in Snow Light Snow
6:53 AM -9.0 °F -32.4 °F -17.0 °F 68% 30.17 in 4.0 mi NNW 17.3 mph - 0.00 in Snow Light Snow
7:53 AM -9.0 °F -33.0 °F -17.0 °F 68% 30.20 in 10.0 mi North 18.4 mph - 0.00 in   Overcast
8:53 AM -9.0 °F -29.3 °F -16.1 °F 71% 30.24 in 10.0 mi North 12.7 mph - N/A   Clear
9:53 AM -8.0 °F -29.6 °F -17.0 °F 65% 30.25 in 10.0 mi North 15.0 mph 24.2 mph N/A   Clear
10:53 AM -7.1 °F -28.4 °F -16.1 °F 65% 30.26 in 10.0 mi North 15.0 mph - N/A   Clear
11:53 AM -5.1 °F -25.9 °F -15.0 °F 62% 30.26 in 10.0 mi North 15.0 mph - N/A   Clear
12:53 PM -4.0 °F -22.1 °F -15.0 °F 59% 30.28 in 10.0 mi NNE 11.5 mph - N/A   Clear
1:53 PM -2.9 °F -21.6 °F -15.0 °F 56% 30.29 in 10.0 mi NNE 12.7 mph - N/A   Clear
2:53 PM -0.9 °F -18.3 °F -15.0 °F 52% 30.31 in 10.0 mi NNE 11.5 mph - N/A   Clear
3:53 PM -2.0 °F -13.9 °F -16.1 °F 51% 30.34 in 10.0 mi NE 5.8 mph - N/A   Clear
4:53 PM -5.1 °F -13.6 °F -11.0 °F 76% 30.38 in 10.0 mi East 3.5 mph - N/A   Clear
5:53 PM -9.0 °F - -14.1 °F 79% 30.41 in 10.0 mi Calm Calm - N/A   Clear
6:53 PM -11.9 °F - -16.1 °F 82% 30.43 in 10.0 mi Calm Calm - N/A   Clear
7:53 PM -15.0 °F - -20.0 °F 78% 30.44 in 10.0 mi Calm Calm - N/A   Clear
8:53 PM -16.1 °F - -20.9 °F 79% 30.44 in 10.0 mi Calm Calm - N/A   Clear
9:53 PM -17.0 °F - -22.0 °F 78% 30.43 in 10.0 mi Calm Calm - N/A   Clear
10:53 PM -18.0 °F - -23.1 °F 78% 30.43 in 10.0 mi Calm Calm - N/A   Clear
11:53 PM -18.0 °F - -24.0 °F 74% 30.43 in 10.0 mi Calm Calm - N/A   Clear